Total_Precipitation_Accumulation
0.74 0.71 0.72 0.64 0.60 0.61 0.64 0.78 0.99 0.84 0.50 0.36 0.35 0.37 0.42 0.48 0.54 0.53 0.51 0.56 0.62 0.71 0.79 0.81 0.79 0.90 1.22 1.82 2.75 3.72 3.87 3.12 2.24 1.72 1.66 2.03 2.40 2.80
0.79 0.80 0.78 0.77 0.75 0.69 0.69 0.73 0.85 0.93 0.69 0.36 0.33 0.35 0.47 0.55 0.62 0.56 0.57 0.64 0.62 0.68 0.73 0.76 0.76 0.82 1.00 1.30 1.86 2.74 3.57 3.75 3.16 2.43 2.04 2.07 2.33 2.61
0.85 0.90 0.88 0.86 0.91 0.86 0.80 0.76 0.77 0.84 0.82 0.42 0.32 0.34 0.50 0.64 0.67 0.66 0.68 0.65 0.58 0.61 0.67 0.72 0.73 0.76 0.89 1.08 1.38 1.95 2.77 3.45 3.62 3.20 2.74 2.44 2.39 2.44
0.92 0.93 0.94 0.94 0.97 0.96 0.95 0.87 0.76 0.70 0.75 0.60 0.40 0.41 0.50 0.65 0.74 0.75 0.74 0.71 0.64 0.63 0.65 0.70 0.72 0.75 0.84 0.97 1.16 1.49 2.08 2.70 3.24 3.37 3.11 2.72 2.50 2.55
1.17 1.14 1.06 1.03 1.05 1.01 1.02 0.97 0.86 0.75 0.71 0.70 0.53 0.44 0.51 0.63 0.78 0.83 0.78 0.76 0.72 0.72 0.69 0.68 0.69 0.71 0.76 0.85 1.00 1.21 1.47 1.88 2.37 2.96 3.19 2.97 2.65 2.55
1.27 1.28 1.24 1.23 1.18 1.13 1.12 1.07 1.02 0.98 0.91 0.90 0.78 0.62 0.58 0.63 0.83 0.97 0.93 0.82 0.77 0.74 0.73 0.67 0.69 0.68 0.66 0.64 0.68 0.84 1.07 1.43 1.91 2.44 2.93 3.05 2.77 2.56
1.10 1.11 1.17 1.30 1.35 1.40 1.43 1.33 1.28 1.33 1.28 1.22 1.05 0.88 0.76 0.80 0.92 0.97 1.09 1.01 0.89 0.81 0.78 0.68 0.64 0.58 0.53 0.51 0.55 0.66 0.83 1.05 1.40 1.88 2.38 2.77 2.82 2.67
0.93 0.88 0.89 1.08 1.17 1.27 1.39 1.40 1.45 1.58 1.63 1.55 1.33 1.11 0.87 0.80 0.89 1.07 1.24 1.35 1.21 0.87 0.86 0.82 0.69 0.65 0.54 0.45 0.47 0.54 0.69 0.91 1.13 1.45 1.84 2.28 2.57 2.71
0.73 0.74 0.75 0.84 0.97 0.96 1.09 1.17 1.24 1.39 1.59 1.66 1.60 1.23 0.97 0.82 0.99 1.19 1.24 1.34 1.23 1.00 1.05 1.16 0.95 0.80 0.64 0.58 0.60 0.55 0.63 0.78 0.93 1.14 1.45 1.85 2.22 2.49
0.62 0.60 0.60 0.66 0.80 0.94 1.03 1.05 1.01 1.11 1.37 1.56 1.68 1.49 1.24 1.10 1.25 1.52 1.65 1.66 1.49 1.27 1.22 1.42 1.20 1.01 0.87 0.75 0.68 0.61 0.63 0.69 0.79 0.92 1.14 1.47 1.85 2.15
0.60 0.60 0.55 0.53 0.75 0.96 0.97 0.94 0.85 0.88 1.05 1.31 1.51 1.57 1.57 1.63 1.71 1.98 2.16 2.11 1.95 1.62 1.39 1.47 1.45 1.33 1.17 1.02 0.85 0.71 0.64 0.65 0.69 0.79 0.92 1.14 1.48 1.89
0.63 0.60 0.66 0.68 0.83 0.89 0.85 0.90 0.93 0.84 0.80 0.88 0.98 1.08 1.17 1.28 1.52 1.77 1.94 2.02 1.99 1.96 1.57 1.45 1.59 1.67 1.78 1.40 1.03 0.74 0.63 0.66 0.67 0.72 0.81 0.95 1.21 1.48
0.72 0.67 0.63 0.74 0.78 0.81 0.84 0.86 0.97 0.89 0.83 0.93 0.95 0.91 0.95 1.07 1.21 1.44 1.71 1.87 1.98 1.93 1.57 1.55 1.76 1.67 1.76 1.66 1.32 0.96 0.66 0.59 0.62 0.71 0.80 0.86 0.99 1.13
0.72 0.63 0.63 0.75 0.79 0.84 0.83 0.89 0.95 0.93 0.88 0.89 0.85 0.82 0.85 0.95 1.06 1.23 1.45 1.62 1.68 1.68 1.50 1.51 1.86 1.70 1.59 1.46 1.36 1.23 0.92 0.69 0.59 0.60 0.67 0.89 1.02 1.06
0.90 0.90 0.82 0.85 0.86 0.80 0.82 0.84 0.83 0.80 0.86 0.86 0.77 0.70 0.72 0.84 0.93 1.05 1.20 1.39 1.50 1.55 1.54 1.48 1.64 1.71 1.67 1.52 1.22 1.11 1.08 0.95 0.70 0.61 0.65 0.71 0.79 0.89
1.06 1.06 1.01 0.96 0.85 0.78 0.76 0.71 0.68 0.72 0.76 0.75 0.68 0.61 0.62 0.72 0.84 0.96 1.13 1.29 1.48 1.53 1.53 1.57 1.64 1.83 1.83 1.48 1.25 1.07 0.93 1.02 0.85 0.65 0.65 0.71 0.71 0.66
1.14 1.09 0.99 0.96 0.93 0.81 0.71 0.65 0.63 0.67 0.67 0.61 0.61 0.62 0.63 0.70 0.77 0.88 1.08 1.23 1.39 1.40 1.50 1.71 1.80 1.85 1.90 1.80 1.62 1.21 0.92 0.83 0.78 0.67 0.69 0.82 0.87 0.77
1.13 1.04 0.87 0.78 0.77 0.72 0.67 0.64 0.60 0.59 0.55 0.55 0.60 0.63 0.65 0.71 0.77 0.83 1.00 1.18 1.27 1.28 1.37 1.57 1.78 1.93 2.10 2.17 1.89 1.40 1.03 0.89 0.85 0.76 0.71 0.81 0.96 0.89
0.92 0.81 0.70 0.64 0.60 0.58 0.59 0.56 0.54 0.51 0.53 0.56 0.57 0.57 0.60 0.66 0.72 0.79 0.89 1.02 1.14 1.22 1.29 1.39 1.60 1.80 1.92 2.02 2.09 1.68 1.26 1.05 1.00 1.00 0.89 0.79 0.83 0.88
0.76 0.70 0.68 0.63 0.59 0.57 0.56 0.55 0.52 0.52 0.56 0.57 0.55 0.53 0.56 0.64 0.68 0.71 0.77 0.90 1.02 1.12 1.20 1.28 1.43 1.62 1.70 1.64 1.74 1.79 1.62 1.28 1.12 1.12 1.05 0.95 0.95 1.06
0.71 0.66 0.65 0.67 0.64 0.60 0.56 0.54 0.55 0.54 0.53 0.56 0.53 0.51 0.53 0.60 0.63 0.64 0.71 0.83 0.95 1.01 1.07 1.14 1.27 1.43 1.59 1.59 1.52 1.50 1.65 1.65 1.32 1.13 1.07 1.14 1.24 1.26
0.65 0.64 0.63 0.65 0.67 0.65 0.61 0.60 0.59 0.57 0.55 0.55 0.51 0.48 0.49 0.54 0.58 0.61 0.66 0.72 0.79 0.87 0.96 1.06 1.19 1.40 1.62 1.67 1.52 1.36 1.48 1.69 1.72 1.44 1.21 1.16 1.31 1.39
0.67 0.66 0.64 0.64 0.66 0.65 0.64 0.63 0.63 0.58 0.54 0.52 0.48 0.44 0.45 0.49 0.51 0.56 0.59 0.60 0.67 0.76 0.90 1.05 1.19 1.35 1.52 1.59 1.56 1.39 1.32 1.45 1.59 1.60 1.59 1.35 1.04 0.89